Location: Allonne
(49.4086°N, 2.1143°E)
Time: 19:28:56
(UTC+00:00)

COSMOS 2428 - Pass Details

Date: 03 February 2023
Orbit: 843 x 858 km, 70.9° (Epoch: 26 March)

Event Time Altitude Azimuth Distance (km) Brightness Sun altitude
Rises 20:10:09 0° 210° (SSW) 3,392 6.0 -32.5°
Reaches altitude 10° 20:12:35 10° 212° (SSW) 2,459 5.3 -32.9°
Enters shadow 20:14:26 22° 214° (SW) 1,781 4.5 -33.2°
